Time,TemperatureF,DewpointF,PressureIn,WindDirection,WindDirectionDegrees,WindSpeedMPH,WindSpeedGustMPH,Humidity,HourlyPrecipIn,Conditions,Clouds,dailyrainin,SoftwareType,DateUTC
2013-03-08 00:00:00,33.1,17.8,30.10,NNW,344,2.0,5.0,53,0.00,,---,0.11,VWS V14.01,2013-03-08 05:00:00,
2013-03-08 00:01:00,33.1,17.8,30.10,NW,309,1.0,2.0,53,0.00,,---,0.00,VWS V14.01,2013-03-08 05:01:00,
2013-03-08 00:06:00,33.1,17.8,30.10,NNE,17,6.0,8.0,53,0.00,,---,0.00,VWS V14.01,2013-03-08 05:06:00,
2013-03-08 00:11:00,33.1,17.8,30.10,North,355,3.0,4.0,53,0.00,,---,0.00,VWS V14.01,2013-03-08 05:11:00,
2013-03-08 00:16:00,33.1,17.8,30.10,NNW,346,0.0,1.0,53,0.00,,---,0.00,VWS V14.01,2013-03-08 05:16:00,
2013-03-08 00:21:00,32.9,17.7,30.10,NW,320,0.0,3.0,53,0.00,,---,0.00,VWS V14.01,2013-03-08 05:21:00,
2013-03-08 00:26:00,32.8,17.6,30.10,NW,315,4.0,6.0,53,0.00,,---,0.00,VWS V14.01,2013-03-08 05:26:00,
2013-03-08 00:31:00,32.9,17.7,30.10,North,355,2.0,11.0,53,0.00,,---,0.00,VWS V14.01,2013-03-08 05:31:00,
2013-03-08 00:36:00,32.9,17.7,30.10,NW,315,4.0,10.0,53,0.00,,---,0.00,VWS V14.01,2013-03-08 05:36:00,
2013-03-08 00:41:00,32.9,17.7,30.10,North,351,2.0,6.0,53,0.00,,---,0.00,VWS V14.01,2013-03-08 05:41:00,
2013-03-08 00:46:00,32.9,17.7,30.10,NW,315,3.0,8.0,53,0.00,,---,0.00,VWS V14.01,2013-03-08 05:46:00,
2013-03-08 00:51:00,32.8,17.6,30.10,NW,310,3.0,7.0,53,0.00,,---,0.00,VWS V14.01,2013-03-08 05:51:00,
2013-03-08 00:56:00,32.8,18.0,30.10,NW,313,4.0,7.0,54,0.00,,---,0.00,VWS V14.01,2013-03-08 05:56:00,
2013-03-08 01:01:00,32.7,17.9,30.10,NNE,20,6.0,6.0,54,0.00,,---,0.00,VWS V14.01,2013-03-08 06:01:00,
2013-03-08 01:06:00,32.7,17.9,30.10,NNW,336,0.0,5.0,54,0.00,,---,0.00,VWS V14.01,2013-03-08 06:06:00,
2013-03-08 01:11:00,32.7,18.3,30.10,North,349,0.0,1.0,55,0.00,,---,0.00,VWS V14.01,2013-03-08 06:11:00,
2013-03-08 01:16:00,32.7,18.3,30.11,NNE,16,6.0,6.0,55,0.00,,---,0.00,VWS V14.01,2013-03-08 06:16:00,
2013-03-08 01:21:00,32.7,18.3,30.11,North,351,5.0,5.0,55,0.00,,---,0.00,VWS V14.01,2013-03-08 06:21:00,
2013-03-08 01:26:00,32.7,18.3,30.11,NNW,331,4.0,9.0,55,0.00,,---,0.00,VWS V14.01,2013-03-08 06:26:00,
2013-03-08 01:31:00,32.7,18.3,30.10,North,350,0.0,0.0,55,0.00,,---,0.00,VWS V14.01,2013-03-08 06:31:00,
2013-03-08 01:36:00,32.7,18.8,30.10,NNW,338,3.0,5.0,56,0.00,,---,0.00,VWS V14.01,2013-03-08 06:36:00,
2013-03-08 01:41:00,32.7,18.8,30.10,North,355,1.0,3.0,56,0.00,,---,0.00,VWS V14.01,2013-03-08 06:41:00,
2013-03-08 01:46:00,32.8,18.8,30.10,NW,318,0.0,5.0,56,0.00,,---,0.00,VWS V14.01,2013-03-08 06:46:00,
2013-03-08 01:51:00,33.1,19.1,30.10,NW,319,4.0,6.0,56,0.00,,---,0.00,VWS V14.01,2013-03-08 06:51:00,
2013-03-08 01:56:00,33.2,19.2,30.10,NNW,336,5.0,5.0,56,0.00,,---,0.00,VWS V14.01,2013-03-08 06:56:00,
2013-03-08 02:01:00,33.2,19.2,30.10,NW,317,4.0,9.0,56,0.00,,---,0.00,VWS V14.01,2013-03-08 07:01:00,
2013-03-08 02:06:00,33.4,19.4,30.10,WNW,300,3.0,6.0,56,0.00,,---,0.00,VWS V14.01,2013-03-08 07:06:00,
2013-03-08 02:11:00,33.4,19.4,30.10,NW,304,2.0,7.0,56,0.00,,---,0.00,VWS V14.01,2013-03-08 07:11:00,
2013-03-08 02:16:00,33.4,19.8,30.10,North,5,4.0,6.0,57,0.00,,---,0.00,VWS V14.01,2013-03-08 07:16:00,
2013-03-08 02:21:00,33.4,19.8,30.10,NW,318,5.0,9.0,57,0.00,,---,0.00,VWS V14.01,2013-03-08 07:21:00,
2013-03-08 02:26:00,33.4,19.8,30.10,NW,314,2.0,5.0,57,0.00,,---,0.00,VWS V14.01,2013-03-08 07:26:00,
2013-03-08 02:31:00,33.4,19.8,30.09,NW,322,5.0,7.0,57,0.00,,---,0.00,VWS V14.01,2013-03-08 07:31:00,
2013-03-08 02:36:00,33.2,20.0,30.09,NW,304,4.0,5.0,58,0.00,,---,0.00,VWS V14.01,2013-03-08 07:36:00,
2013-03-08 02:41:00,33.2,20.0,30.09,North,355,0.0,3.0,58,0.00,,---,0.00,VWS V14.01,2013-03-08 07:41:00,
2013-03-08 02:46:00,33.2,20.0,30.09,NW,309,2.0,6.0,58,0.00,,---,0.00,VWS V14.01,2013-03-08 07:46:00,
2013-03-08 02:51:00,33.2,20.4,30.09,North,360,5.0,5.0,59,0.00,,---,0.00,VWS V14.01,2013-03-08 07:51:00,
2013-03-08 02:56:00,33.2,20.4,30.09,NW,312,2.0,5.0,59,0.00,,---,0.00,VWS V14.01,2013-03-08 07:56:00,
2013-03-08 03:01:00,33.1,20.7,30.09,NW,317,0.0,4.0,60,0.00,,---,0.00,VWS V14.01,2013-03-08 08:01:00,
2013-03-08 03:06:00,33.1,20.7,30.09,NW,312,0.0,4.0,60,0.00,,---,0.00,VWS V14.01,2013-03-08 08:06:00,
2013-03-08 03:11:00,32.9,20.9,30.09,NNW,348,0.0,4.0,61,0.00,,---,0.00,VWS V14.01,2013-03-08 08:11:00,
2013-03-08 03:16:00,32.9,20.9,30.09,NW,306,3.0,6.0,61,0.00,,---,0.00,VWS V14.01,2013-03-08 08:16:00,
2013-03-08 03:21:00,32.8,20.9,30.09,WNW,303,0.0,0.0,61,0.00,,---,0.00,VWS V14.01,2013-03-08 08:21:00,
2013-03-08 03:26:00,32.8,21.2,30.09,NW,308,0.0,3.0,62,0.00,,---,0.00,VWS V14.01,2013-03-08 08:26:00,
2013-03-08 03:31:00,32.8,21.2,30.08,NW,305,0.0,4.0,62,0.00,,---,0.00,VWS V14.01,2013-03-08 08:31:00,
2013-03-08 03:36:00,32.7,21.1,30.08,NW,326,1.0,6.0,62,0.00,,---,0.00,VWS V14.01,2013-03-08 08:36:00,
2013-03-08 03:41:00,32.5,20.9,30.08,NW,313,0.0,5.0,62,0.00,,---,0.00,VWS V14.01,2013-03-08 08:41:00,
2013-03-08 03:46:00,32.5,20.9,30.09,North,5,4.0,10.0,62,0.00,,---,0.00,VWS V14.01,2013-03-08 08:46:00,
2013-03-08 03:51:00,32.7,20.8,30.09,NW,312,4.0,6.0,61,0.00,,---,0.00,VWS V14.01,2013-03-08 08:51:00,
2013-03-08 03:56:00,32.7,20.8,30.09,NW,306,0.0,3.0,61,0.00,,---,0.00,VWS V14.01,2013-03-08 08:56:00,
2013-03-08 04:01:00,32.7,20.8,30.09,North,11,4.0,5.0,61,0.00,,---,0.00,VWS V14.01,2013-03-08 09:01:00,
2013-03-08 04:06:00,32.7,20.4,30.09,NW,323,6.0,7.0,60,0.00,,---,0.00,VWS V14.01,2013-03-08 09:06:00,
2013-03-08 04:11:00,32.7,20.0,30.09,North,355,0.0,0.0,59,0.00,,---,0.00,VWS V14.01,2013-03-08 09:11:00,
2013-03-08 04:16:00,32.8,20.1,30.09,WNW,302,0.0,3.0,59,0.00,,---,0.00,VWS V14.01,2013-03-08 09:16:00,
2013-03-08 04:21:00,32.7,19.6,30.09,NW,309,0.0,3.0,58,0.00,,---,0.00,VWS V14.01,2013-03-08 09:21:00,
2013-03-08 04:26:00,32.7,19.6,30.09,WNW,303,0.0,0.0,58,0.00,,---,0.00,VWS V14.01,2013-03-08 09:26:00,
2013-03-08 04:31:00,32.7,19.6,30.09,North,349,3.0,5.0,58,0.00,,---,0.00,VWS V14.01,2013-03-08 09:31:00,
2013-03-08 04:36:00,32.7,19.2,30.09,NNW,340,0.0,3.0,57,0.00,,---,0.00,VWS V14.01,2013-03-08 09:36:00,
2013-03-08 04:41:00,32.7,19.2,30.09,NW,306,3.0,4.0,57,0.00,,---,0.00,VWS V14.01,2013-03-08 09:41:00,
2013-03-08 04:46:00,32.7,19.2,30.09,North,5,5.0,7.0,57,0.00,,---,0.00,VWS V14.01,2013-03-08 09:46:00,
2013-03-08 04:51:00,32.7,18.3,30.09,NNW,348,3.0,6.0,55,0.00,,---,0.00,VWS V14.01,2013-03-08 09:51:00,
2013-03-08 04:56:00,32.7,18.3,30.09,NNW,345,6.0,8.0,55,0.00,,---,0.00,VWS V14.01,2013-03-08 09:56:00,
2013-03-08 05:01:00,32.5,18.1,30.09,NW,321,2.0,6.0,55,0.00,,---,0.00,VWS V14.01,2013-03-08 10:01:00,
2013-03-08 05:06:00,32.2,17.9,30.09,North,355,3.0,6.0,55,0.00,,---,0.00,VWS V14.01,2013-03-08 10:06:00,
2013-03-08 05:11:00,32.2,17.9,30.09,WNW,289,3.0,5.0,55,0.00,,---,0.00,VWS V14.01,2013-03-08 10:11:00,
2013-03-08 05:16:00,32.4,17.6,30.09,North,360,0.0,3.0,54,0.00,,---,0.00,VWS V14.01,2013-03-08 10:16:00,
2013-03-08 05:21:00,32.4,17.6,30.09,NW,310,5.0,11.0,54,0.00,,---,0.00,VWS V14.01,2013-03-08 10:21:00,
2013-03-08 05:26:00,32.5,17.7,30.09,NW,311,6.0,10.0,54,0.00,,---,0.00,VWS V14.01,2013-03-08 10:26:00,
2013-03-08 05:31:00,32.4,17.6,30.09,WNW,302,7.0,15.0,54,0.00,,---,0.00,VWS V14.01,2013-03-08 10:31:00,
2013-03-08 05:36:00,32.5,17.3,30.09,North,355,10.0,15.0,53,0.00,,---,0.00,VWS V14.01,2013-03-08 10:36:00,
2013-03-08 05:41:00,32.7,17.5,30.09,WNW,290,7.0,9.0,53,0.00,,---,0.00,VWS V14.01,2013-03-08 10:41:00,
2013-03-08 05:46:00,32.7,17.5,30.10,WNW,292,0.0,5.0,53,0.00,,---,0.00,VWS V14.01,2013-03-08 10:46:00,
2013-03-08 05:51:00,32.5,17.3,30.10,North,5,0.0,3.0,53,0.00,,---,0.00,VWS V14.01,2013-03-08 10:51:00,
2013-03-08 05:56:00,32.5,17.7,30.10,NW,311,1.0,7.0,54,0.00,,---,0.00,VWS V14.01,2013-03-08 10:56:00,
2013-03-08 06:01:00,32.5,17.3,30.10,NW,314,6.0,7.0,53,0.00,,---,0.00,VWS V14.01,2013-03-08 11:01:00,
2013-03-08 06:06:00,32.5,17.7,30.10,NNE,24,5.0,9.0,54,0.00,,---,0.00,VWS V14.01,2013-03-08 11:06:00,
2013-03-08 06:11:00,32.5,17.7,30.10,NW,311,5.0,5.0,54,0.00,,---,0.00,VWS V14.01,2013-03-08 11:11:00,
2013-03-08 06:16:00,32.4,17.6,30.10,NW,316,4.0,9.0,54,0.00,,---,0.00,VWS V14.01,2013-03-08 11:16:00,
2013-03-08 06:21:00,32.4,18.0,30.10,NW,318,0.0,0.0,55,0.00,,---,0.00,VWS V14.01,2013-03-08 11:21:00,
2013-03-08 06:26:00,32.2,18.3,30.10,North,360,1.0,12.0,56,0.00,,---,0.00,VWS V14.01,2013-03-08 11:26:00,
2013-03-08 06:31:00,32.1,18.6,30.10,North,9,10.0,15.0,57,0.00,,---,0.00,VWS V14.01,2013-03-08 11:31:00,
2013-03-08 06:36:00,32.1,18.6,30.10,NNW,327,0.0,3.0,57,0.00,,---,0.00,VWS V14.01,2013-03-08 11:36:00,
2013-03-08 06:41:00,32.1,18.6,30.10,North,355,4.0,6.0,57,0.00,,---,0.00,VWS V14.01,2013-03-08 11:41:00,
2013-03-08 06:46:00,32.1,18.6,30.11,NW,321,6.0,6.0,57,0.00,,---,0.00,VWS V14.01,2013-03-08 11:46:00,
2013-03-08 06:51:00,32.1,19.0,30.11,North,355,0.0,0.0,58,0.00,,---,0.00,VWS V14.01,2013-03-08 11:51:00,
2013-03-08 06:56:00,31.9,19.6,30.11,NE,42,0.0,0.0,60,0.00,,---,0.00,VWS V14.01,2013-03-08 11:56:00,
2013-03-08 07:01:00,31.5,20.4,30.11,NNW,328,3.0,3.0,63,0.00,,---,0.00,VWS V14.01,2013-03-08 12:01:00,
2013-03-08 07:06:00,31.2,20.8,30.11,NNW,327,2.0,4.0,65,0.00,,---,0.00,VWS V14.01,2013-03-08 12:06:00,
2013-03-08 07:11:00,31.0,21.0,30.11,North,360,7.0,7.0,66,0.00,,---,0.00,VWS V14.01,2013-03-08 12:11:00,
2013-03-08 07:16:00,30.9,20.9,30.12,North,5,4.0,7.0,66,0.00,,---,0.00,VWS V14.01,2013-03-08 12:16:00,
2013-03-08 07:21:00,30.7,21.1,30.12,NW,317,1.0,3.0,67,0.00,,---,0.00,VWS V14.01,2013-03-08 12:21:00,
2013-03-08 07:26:00,30.6,21.3,30.12,NNW,341,4.0,6.0,68,0.00,,---,0.00,VWS V14.01,2013-03-08 12:26:00,
2013-03-08 07:31:00,30.7,21.4,30.12,North,355,4.0,5.0,68,0.00,,---,0.00,VWS V14.01,2013-03-08 12:31:00,
2013-03-08 07:36:00,31.0,21.7,30.12,North,355,5.0,5.0,68,0.00,,---,0.00,VWS V14.01,2013-03-08 12:36:00,
2013-03-08 07:41:00,31.2,21.2,30.12,NNW,333,3.0,5.0,66,0.00,,---,0.00,VWS V14.01,2013-03-08 12:41:00,
2013-03-08 07:46:00,31.2,21.2,30.12,NNW,342,0.0,4.0,66,0.00,,---,0.00,VWS V14.01,2013-03-08 12:46:00,
2013-03-08 07:51:00,31.2,21.2,30.12,NNE,18,0.0,2.0,66,0.00,,---,0.00,VWS V14.01,2013-03-08 12:51:00,
2013-03-08 07:56:00,31.3,20.9,30.12,NW,312,1.0,4.0,65,0.00,,---,0.00,VWS V14.01,2013-03-08 12:56:00,
2013-03-08 08:01:00,31.5,20.7,30.12,NNW,347,2.0,2.0,64,0.00,,---,0.00,VWS V14.01,2013-03-08 13:01:00,
2013-03-08 08:06:00,31.5,20.4,30.12,North,5,3.0,6.0,63,0.00,,---,0.00,VWS V14.01,2013-03-08 13:06:00,
2013-03-08 08:11:00,31.8,19.9,30.12,NNE,24,0.0,0.0,61,0.00,,---,0.00,VWS V14.01,2013-03-08 13:11:00,
2013-03-08 08:16:00,32.1,19.4,30.13,NNE,14,9.0,9.0,59,0.00,,---,0.00,VWS V14.01,2013-03-08 13:16:00,
2013-03-08 08:21:00,32.4,19.7,30.13,North,11,5.0,10.0,59,0.00,,---,0.00,VWS V14.01,2013-03-08 13:21:00,
2013-03-08 08:26:00,32.1,19.8,30.13,NNE,18,4.0,11.0,60,0.00,,---,0.00,VWS V14.01,2013-03-08 13:26:00,
2013-03-08 08:31:00,31.5,20.7,30.13,NNW,341,5.0,5.0,64,0.00,,---,0.00,VWS V14.01,2013-03-08 13:31:00,
2013-03-08 08:36:00,31.0,21.3,30.13,NE,40,4.0,6.0,67,0.00,,---,0.00,VWS V14.01,2013-03-08 13:36:00,
2013-03-08 08:41:00,30.7,21.4,30.13,NNE,13,7.0,9.0,68,0.00,,---,0.00,VWS V14.01,2013-03-08 13:41:00,
2013-03-08 08:46:00,30.9,21.2,30.14,NW,314,4.0,7.0,67,0.00,,---,0.00,VWS V14.01,2013-03-08 13:46:00,
2013-03-08 08:51:00,31.6,20.5,30.14,NNW,343,3.0,6.0,63,0.00,,---,0.00,VWS V14.01,2013-03-08 13:51:00,
2013-03-08 08:56:00,32.4,19.3,30.14,North,360,14.0,14.0,58,0.00,,---,0.00,VWS V14.01,2013-03-08 13:56:00,
2013-03-08 09:01:00,32.8,18.8,30.14,WNW,298,16.0,16.0,56,0.00,,---,0.00,VWS V14.01,2013-03-08 14:01:00,
2013-03-08 09:06:00,32.9,18.1,30.14,North,355,0.0,4.0,54,0.00,,---,0.00,VWS V14.01,2013-03-08 14:06:00,
2013-03-08 09:11:00,33.4,18.1,30.14,WNW,299,9.0,9.0,53,0.00,,---,0.00,VWS V14.01,2013-03-08 14:11:00,
2013-03-08 09:16:00,33.4,16.8,30.14,NW,323,7.0,7.0,50,0.00,,---,0.00,VWS V14.01,2013-03-08 14:16:00,
2013-03-08 09:21:00,33.7,16.1,30.14,NW,312,11.0,18.0,48,0.00,,---,0.00,VWS V14.01,2013-03-08 14:21:00,
2013-03-08 09:26:00,33.7,15.1,30.14,NNE,24,0.0,18.0,46,0.00,,---,0.00,VWS V14.01,2013-03-08 14:26:00,
2013-03-08 09:31:00,33.8,15.7,30.14,NNE,16,3.0,16.0,47,0.00,,---,0.00,VWS V14.01,2013-03-08 14:31:00,
2013-03-08 09:36:00,33.8,15.2,30.14,NNE,14,5.0,10.0,46,0.00,,---,0.00,VWS V14.01,2013-03-08 14:36:00,
2013-03-08 09:41:00,34.0,14.4,30.14,North,360,23.0,23.0,44,0.00,,---,0.00,VWS V14.01,2013-03-08 14:41:00,
2013-03-08 09:46:00,34.1,14.0,30.14,NW,323,10.0,10.0,43,0.00,,---,0.00,VWS V14.01,2013-03-08 14:46:00,
2013-03-08 09:51:00,34.1,14.0,30.14,WNW,298,9.0,9.0,43,0.00,,---,0.00,VWS V14.01,2013-03-08 14:51:00,
2013-03-08 09:56:00,34.1,14.0,30.14,NNE,14,5.0,8.0,43,0.00,,---,0.00,VWS V14.01,2013-03-08 14:56:00,
2013-03-08 10:01:00,34.3,13.6,30.14,North,9,4.0,19.0,42,0.00,,---,0.00,VWS V14.01,2013-03-08 15:01:00,
2013-03-08 10:06:00,34.1,14.0,30.14,North,5,14.0,18.0,43,0.00,,---,0.00,VWS V14.01,2013-03-08 15:06:00,
2013-03-08 10:11:00,34.3,14.1,30.14,North,355,13.0,13.0,43,0.00,,---,0.00,VWS V14.01,2013-03-08 15:11:00,
2013-03-08 10:16:00,34.1,13.4,30.14,NW,319,10.0,16.0,42,0.00,,---,0.00,VWS V14.01,2013-03-08 15:16:00,
2013-03-08 10:21:00,34.4,13.7,30.14,NW,319,10.0,16.0,42,0.00,,---,0.00,VWS V14.01,2013-03-08 15:21:00,
2013-03-08 10:26:00,34.6,13.9,30.14,NW,312,6.0,13.0,42,0.00,,---,0.00,VWS V14.01,2013-03-08 15:26:00,
2013-03-08 10:31:00,34.6,13.9,30.15,NNW,348,9.0,18.0,42,0.00,,---,0.00,VWS V14.01,2013-03-08 15:31:00,
2013-03-08 10:36:00,35.0,13.7,30.15,North,355,6.0,11.0,41,0.00,,---,0.00,VWS V14.01,2013-03-08 15:36:00,
2013-03-08 10:41:00,35.3,14.0,30.15,NNE,24,2.0,12.0,41,0.00,,---,0.00,VWS V14.01,2013-03-08 15:41:00,
2013-03-08 10:46:00,35.2,13.3,30.15,NNE,32,9.0,11.0,40,0.00,,---,0.00,VWS V14.01,2013-03-08 15:46:00,
2013-03-08 10:51:00,35.6,13.7,30.15,WNW,302,7.0,17.0,40,0.00,,---,0.00,VWS V14.01,2013-03-08 15:51:00,
2013-03-08 10:56:00,35.6,13.1,30.15,North,360,7.0,17.0,39,0.00,,---,0.00,VWS V14.01,2013-03-08 15:56:00,
2013-03-08 11:01:00,35.8,12.7,30.14,NNE,15,7.0,9.0,38,0.00,,---,0.00,VWS V14.01,2013-03-08 16:01:00,
2013-03-08 11:06:00,36.2,13.1,30.14,NNE,15,9.0,13.0,38,0.00,,---,0.00,VWS V14.01,2013-03-08 16:06:00,
2013-03-08 11:11:00,36.3,13.1,30.14,NNE,13,6.0,14.0,38,0.00,,---,0.00,VWS V14.01,2013-03-08 16:11:00,
2013-03-08 11:16:00,36.5,13.3,30.15,North,5,10.0,11.0,38,0.00,,---,0.00,VWS V14.01,2013-03-08 16:16:00,
2013-03-08 11:21:00,36.3,12.5,30.15,North,350,10.0,12.0,37,0.00,,---,0.00,VWS V14.01,2013-03-08 16:21:00,
2013-03-08 11:26:00,36.8,13.0,30.15,North,9,10.0,11.0,37,0.00,,---,0.00,VWS V14.01,2013-03-08 16:26:00,
2013-03-08 11:31:00,37.0,13.2,30.14,NW,309,3.0,6.0,37,0.00,,---,0.00,VWS V14.01,2013-03-08 16:31:00,
2013-03-08 11:36:00,37.2,12.1,30.14,WNW,296,9.0,11.0,35,0.00,,---,0.00,VWS V14.01,2013-03-08 16:36:00,
2013-03-08 11:41:00,37.2,12.7,30.14,NNE,15,12.0,23.0,36,0.00,,---,0.00,VWS V14.01,2013-03-08 16:41:00,
2013-03-08 11:46:00,37.0,11.9,30.14,North,5,9.0,12.0,35,0.00,,---,0.00,VWS V14.01,2013-03-08 16:46:00,
2013-03-08 11:51:00,37.2,12.7,30.14,NW,310,11.0,14.0,36,0.00,,---,0.00,VWS V14.01,2013-03-08 16:51:00,
2013-03-08 11:56:00,37.2,12.7,30.14,WNW,303,8.0,15.0,36,0.00,,---,0.00,VWS V14.01,2013-03-08 16:56:00,
2013-03-08 12:01:00,37.6,12.4,30.14,NE,36,7.0,10.0,35,0.00,,---,0.00,VWS V14.01,2013-03-08 17:01:00,
2013-03-08 12:06:00,37.9,12.7,30.14,North,350,3.0,4.0,35,0.00,,---,0.00,VWS V14.01,2013-03-08 17:06:00,
2013-03-08 12:11:00,38.0,12.8,30.14,North,360,5.0,14.0,35,0.00,,---,0.00,VWS V14.01,2013-03-08 17:11:00,
2013-03-08 12:16:00,37.9,12.7,30.14,North,5,13.0,17.0,35,0.00,,---,0.00,VWS V14.01,2013-03-08 17:16:00,
2013-03-08 12:21:00,38.0,12.8,30.14,WNW,301,4.0,7.0,35,0.00,,---,0.00,VWS V14.01,2013-03-08 17:21:00,
2013-03-08 12:26:00,38.2,13.0,30.14,NNE,23,4.0,9.0,35,0.00,,---,0.00,VWS V14.01,2013-03-08 17:26:00,
2013-03-08 12:31:00,38.0,12.8,30.14,NW,304,9.0,16.0,35,0.00,,---,0.00,VWS V14.01,2013-03-08 17:31:00,
2013-03-08 12:36:00,38.2,13.0,30.14,WNW,296,5.0,15.0,35,0.00,,---,0.00,VWS V14.01,2013-03-08 17:36:00,
2013-03-08 12:41:00,38.6,13.3,30.14,WNW,297,7.0,7.0,35,0.00,,---,0.00,VWS V14.01,2013-03-08 17:41:00,
2013-03-08 12:46:00,38.8,13.5,30.13,NE,38,10.0,10.0,35,0.00,,---,0.00,VWS V14.01,2013-03-08 17:46:00,
2013-03-08 12:50:00,38.6,13.3,30.13,WNW,300,7.0,7.0,35,0.00,,---,0.00,VWS V14.01,2013-03-08 17:50:00,
2013-03-08 12:55:00,38.6,13.3,30.13,NNE,13,4.0,6.0,35,0.00,,---,0.00,VWS V14.01,2013-03-08 17:55:00,
2013-03-08 13:00:00,39.2,14.5,30.12,NNE,26,6.0,6.0,36,0.00,,---,0.00,VWS V14.01,2013-03-08 18:00:00,
2013-03-08 13:05:00,39.3,13.9,30.12,WNW,300,3.0,3.0,35,0.00,,---,0.00,VWS V14.01,2013-03-08 18:05:00,
2013-03-08 13:10:00,39.5,14.1,30.12,NNE,16,10.0,13.0,35,0.00,,---,0.00,VWS V14.01,2013-03-08 18:10:00,
2013-03-08 13:15:00,39.8,13.7,30.12,North,355,6.0,6.0,34,0.00,,---,0.00,VWS V14.01,2013-03-08 18:15:00,
2013-03-08 13:20:00,40.1,14.0,30.12,NW,309,4.0,9.0,34,0.00,,---,0.00,VWS V14.01,2013-03-08 18:20:00,
2013-03-08 13:25:00,40.5,13.7,30.12,NNW,333,14.0,14.0,33,0.00,,---,0.00,VWS V14.01,2013-03-08 18:25:00,
2013-03-08 13:30:00,40.2,13.4,30.12,NW,325,10.0,10.0,33,0.00,,---,0.00,VWS V14.01,2013-03-08 18:30:00,
2013-03-08 13:35:00,40.2,14.1,30.12,NNE,23,7.0,7.0,34,0.00,,---,0.00,VWS V14.01,2013-03-08 18:35:00,
2013-03-08 13:40:00,40.1,14.0,30.12,NNW,330,12.0,12.0,34,0.00,,---,0.00,VWS V14.01,2013-03-08 18:40:00,
2013-03-08 13:45:00,39.8,13.7,30.12,WNW,296,11.0,11.0,34,0.00,,---,0.00,VWS V14.01,2013-03-08 18:45:00,
2013-03-08 13:50:00,39.6,14.2,30.12,WNW,294,5.0,5.0,35,0.00,,---,0.00,VWS V14.01,2013-03-08 18:50:00,
2013-03-08 13:55:00,40.5,14.4,30.12,North,360,10.0,10.0,34,0.00,,---,0.00,VWS V14.01,2013-03-08 18:55:00,
2013-03-08 14:00:00,40.5,13.7,30.12,North,5,3.0,5.0,33,0.00,,---,0.00,VWS V14.01,2013-03-08 19:00:00,
2013-03-08 14:05:00,40.6,13.8,30.12,West,265,5.0,10.0,33,0.00,,---,0.00,VWS V14.01,2013-03-08 19:05:00,
2013-03-08 14:10:00,40.6,13.8,30.12,NW,313,6.0,10.0,33,0.00,,---,0.00,VWS V14.01,2013-03-08 19:10:00,
2013-03-08 14:15:00,40.8,13.9,30.12,North,9,7.0,7.0,33,0.00,,---,0.00,VWS V14.01,2013-03-08 19:15:00,
2013-03-08 14:20:00,41.2,12.9,30.12,NNE,20,16.0,16.0,31,0.00,,---,0.00,VWS V14.01,2013-03-08 19:20:00,
2013-03-08 14:25:00,41.2,13.6,30.12,NW,311,5.0,6.0,32,0.00,,---,0.00,VWS V14.01,2013-03-08 19:25:00,
2013-03-08 14:30:00,41.3,13.7,30.11,North,355,4.0,7.0,32,0.00,,---,0.00,VWS V14.01,2013-03-08 19:30:00,
2013-03-08 14:35:00,41.6,13.2,30.11,NW,323,7.0,9.0,31,0.00,,---,0.00,VWS V14.01,2013-03-08 19:35:00,
2013-03-08 14:40:00,42.1,13.7,30.11,NW,311,9.0,9.0,31,0.00,,---,0.00,VWS V14.01,2013-03-08 19:40:00,
2013-03-08 14:45:00,41.9,12.7,30.12,NNE,13,11.0,12.0,30,0.00,,---,0.00,VWS V14.01,2013-03-08 19:45:00,
2013-03-08 14:50:00,42.1,14.4,30.12,NNE,29,5.0,9.0,32,0.00,,---,0.00,VWS V14.01,2013-03-08 19:50:00,
2013-03-08 14:55:00,42.2,13.8,30.12,NW,310,6.0,10.0,31,0.00,,---,0.00,VWS V14.01,2013-03-08 19:55:00,
2013-03-08 15:00:00,42.6,13.4,30.12,NNE,17,6.0,9.0,30,0.00,,---,0.00,VWS V14.01,2013-03-08 20:00:00,
2013-03-08 15:05:00,42.1,12.9,30.12,WNW,301,3.0,7.0,30,0.00,,---,0.00,VWS V14.01,2013-03-08 20:05:00,
2013-03-08 15:10:00,42.2,13.0,30.12,NNE,19,5.0,12.0,30,0.00,,---,0.00,VWS V14.01,2013-03-08 20:10:00,
2013-03-08 15:15:00,42.5,12.5,30.13,NNE,24,3.0,4.0,29,0.00,,---,0.00,VWS V14.01,2013-03-08 20:15:00,
2013-03-08 15:20:00,41.6,13.2,30.13,NW,306,4.0,11.0,31,0.00,,---,0.00,VWS V14.01,2013-03-08 20:20:00,
2013-03-08 15:25:00,41.8,13.4,30.13,North,355,3.0,5.0,31,0.00,,---,0.00,VWS V14.01,2013-03-08 20:25:00,
2013-03-08 15:30:00,43.2,13.1,30.14,NNE,20,10.0,13.0,29,0.00,,---,0.00,VWS V14.01,2013-03-08 20:30:00,
2013-03-08 15:35:00,42.9,12.1,30.14,WNW,300,4.0,10.0,28,0.00,,---,0.00,VWS V14.01,2013-03-08 20:35:00,
2013-03-08 15:40:00,42.8,12.8,30.14,North,5,4.0,5.0,29,0.00,,---,0.00,VWS V14.01,2013-03-08 20:40:00,
2013-03-08 15:45:00,42.5,13.3,30.14,North,355,4.0,11.0,30,0.00,,---,0.00,VWS V14.01,2013-03-08 20:45:00,
2013-03-08 15:50:00,42.1,12.9,30.14,NNW,345,1.0,4.0,30,0.00,,---,0.00,VWS V14.01,2013-03-08 20:50:00,
2013-03-08 15:55:00,42.1,13.7,30.14,NNW,335,3.0,3.0,31,0.00,,---,0.00,VWS V14.01,2013-03-08 20:55:00,
2013-03-08 16:00:00,42.1,13.7,30.14,NNW,348,7.0,7.0,31,0.00,,---,0.00,VWS V14.01,2013-03-08 21:00:00,
2013-03-08 16:05:00,42.1,13.7,30.14,North,5,7.0,7.0,31,0.00,,---,0.00,VWS V14.01,2013-03-08 21:05:00,
2013-03-08 16:10:00,42.1,13.7,30.14,NW,306,6.0,7.0,31,0.00,,---,0.00,VWS V14.01,2013-03-08 21:10:00,
2013-03-08 16:15:00,42.1,13.7,30.15,NW,316,0.0,3.0,31,0.00,,---,0.00,VWS V14.01,2013-03-08 21:15:00,
2013-03-08 16:20:00,42.1,13.7,30.15,NW,306,6.0,6.0,31,0.00,,---,0.00,VWS V14.01,2013-03-08 21:20:00,
2013-03-08 16:25:00,42.1,14.4,30.15,NE,49,2.0,3.0,32,0.00,,---,0.00,VWS V14.01,2013-03-08 21:25:00,
2013-03-08 16:30:00,41.9,14.2,30.15,NW,313,0.0,0.0,32,0.00,,---,0.00,VWS V14.01,2013-03-08 21:30:00,
2013-03-08 16:35:00,41.9,14.2,30.15,NW,312,0.0,0.0,32,0.00,,---,0.00,VWS V14.01,2013-03-08 21:35:00,
2013-03-08 16:40:00,41.9,14.2,30.15,North,9,2.0,5.0,32,0.00,,---,0.00,VWS V14.01,2013-03-08 21:40:00,
2013-03-08 16:45:00,41.9,14.2,30.15,NW,304,1.0,6.0,32,0.00,,---,0.00,VWS V14.01,2013-03-08 21:45:00,
2013-03-08 16:50:00,42.1,14.4,30.15,North,360,12.0,12.0,32,0.00,,---,0.00,VWS V14.01,2013-03-08 21:50:00,
2013-03-08 16:55:00,42.1,14.4,30.15,NW,311,6.0,6.0,32,0.00,,---,0.00,VWS V14.01,2013-03-08 21:55:00,
2013-03-08 17:00:00,42.1,15.1,30.16,NNE,20,7.0,7.0,33,0.00,,---,0.00,VWS V14.01,2013-03-08 22:00:00,
2013-03-08 17:05:00,42.2,13.8,30.16,NNW,343,3.0,3.0,31,0.00,,---,0.00,VWS V14.01,2013-03-08 22:05:00,
2013-03-08 17:10:00,42.3,13.8,30.16,NNW,342,0.0,0.0,31,0.00,,---,0.00,VWS V14.01,2013-03-08 22:10:00,
2013-03-08 17:15:00,42.5,14.0,30.17,North,5,2.0,6.0,31,0.00,,---,0.00,VWS V14.01,2013-03-08 22:15:00,
2013-03-08 17:20:00,42.6,14.1,30.17,North,349,5.0,5.0,31,0.00,,---,0.00,VWS V14.01,2013-03-08 22:20:00,
2013-03-08 17:25:00,42.5,14.0,30.17,NNW,331,4.0,4.0,31,0.00,,---,0.00,VWS V14.01,2013-03-08 22:25:00,
2013-03-08 17:30:00,42.5,14.0,30.17,NNW,333,4.0,4.0,31,0.00,,---,0.00,VWS V14.01,2013-03-08 22:30:00,
2013-03-08 17:35:00,42.3,13.8,30.17,NW,313,5.0,6.0,31,0.00,,---,0.00,VWS V14.01,2013-03-08 22:35:00,
2013-03-08 17:40:00,42.2,13.8,30.17,NW,314,2.0,4.0,31,0.00,,---,0.00,VWS V14.01,2013-03-08 22:40:00,
2013-03-08 17:45:00,41.8,14.8,30.18,NNW,348,9.0,9.0,33,0.00,,---,0.00,VWS V14.01,2013-03-08 22:45:00,
2013-03-08 17:50:00,41.5,15.2,30.18,North,355,6.0,6.0,34,0.00,,---,0.00,VWS V14.01,2013-03-08 22:50:00,
2013-03-08 17:55:00,41.2,15.6,30.18,NW,326,3.0,6.0,35,0.00,,---,0.00,VWS V14.01,2013-03-08 22:55:00,
2013-03-08 18:00:00,41.2,15.6,30.18,North,355,6.0,7.0,35,0.00,,---,0.00,VWS V14.01,2013-03-08 23:00:00,
2013-03-08 18:05:00,41.1,15.6,30.18,NNW,341,4.0,5.0,35,0.00,,---,0.00,VWS V14.01,2013-03-08 23:05:00,
2013-03-08 18:10:00,40.9,15.4,30.18,NNW,331,0.0,0.0,35,0.00,,---,0.00,VWS V14.01,2013-03-08 23:10:00,
2013-03-08 18:15:00,40.8,15.3,30.19,NNW,333,0.0,0.0,35,0.00,,---,0.00,VWS V14.01,2013-03-08 23:15:00,
2013-03-08 18:20:00,40.8,15.9,30.19,NNW,333,0.0,1.0,36,0.00,,---,0.00,VWS V14.01,2013-03-08 23:20:00,
2013-03-08 18:25:00,40.6,15.8,30.19,North,5,0.0,2.0,36,0.00,,---,0.00,VWS V14.01,2013-03-08 23:25:00,
2013-03-08 18:30:00,40.3,16.1,30.19,NNW,336,5.0,5.0,37,0.00,,---,0.00,VWS V14.01,2013-03-08 23:30:00,
2013-03-08 18:35:00,40.5,16.3,30.19,NW,313,0.0,0.0,37,0.00,,---,0.00,VWS V14.01,2013-03-08 23:35:00,
2013-03-08 18:40:00,40.3,16.1,30.19,NW,315,0.0,0.0,37,0.00,,---,0.00,VWS V14.01,2013-03-08 23:40:00,
2013-03-08 18:45:00,40.2,16.6,30.20,NNW,344,0.0,3.0,38,0.00,,---,0.00,VWS V14.01,2013-03-08 23:45:00,
2013-03-08 18:50:00,40.1,15.9,30.20,NW,315,0.0,0.0,37,0.00,,---,0.00,VWS V14.01,2013-03-08 23:50:00,
2013-03-08 18:55:00,40.1,15.9,30.20,NW,316,0.0,2.0,37,0.00,,---,0.00,VWS V14.01,2013-03-08 23:55:00,
2013-03-08 19:00:00,40.1,15.9,30.20,NNE,32,0.0,2.0,37,0.00,,---,0.00,VWS V14.01,2013-03-09 00:00:00,
2013-03-08 19:05:00,40.1,16.5,30.20,NNW,344,0.0,3.0,38,0.00,,---,0.00,VWS V14.01,2013-03-09 00:05:00,
2013-03-08 19:10:00,39.9,16.4,30.20,North,350,0.0,0.0,38,0.00,,---,0.00,VWS V14.01,2013-03-09 00:10:00,
2013-03-08 19:15:00,39.8,16.3,30.21,North,350,0.0,0.0,38,0.00,,---,0.00,VWS V14.01,2013-03-09 00:15:00,
2013-03-08 19:20:00,39.8,16.3,30.21,NW,313,0.0,4.0,38,0.00,,---,0.00,VWS V14.01,2013-03-09 00:20:00,
2013-03-08 19:25:00,39.6,16.7,30.21,NNW,346,3.0,3.0,39,0.00,,---,0.00,VWS V14.01,2013-03-09 00:25:00,
2013-03-08 19:30:00,39.9,16.4,30.22,NNW,340,0.0,5.0,38,0.00,,---,0.00,VWS V14.01,2013-03-09 00:30:00,
2013-03-08 19:35:00,39.8,16.3,30.22,NW,321,0.0,2.0,38,0.00,,---,0.00,VWS V14.01,2013-03-09 00:35:00,
2013-03-08 19:40:00,39.6,16.1,30.22,NW,321,0.0,0.0,38,0.00,,---,0.00,VWS V14.01,2013-03-09 00:40:00,
2013-03-08 19:45:00,39.5,16.6,30.22,NW,321,0.0,0.0,39,0.00,,---,0.00,VWS V14.01,2013-03-09 00:45:00,
2013-03-08 19:50:00,39.5,16.6,30.22,NNW,339,0.0,3.0,39,0.00,,---,0.00,VWS V14.01,2013-03-09 00:50:00,
2013-03-08 19:55:00,39.3,16.4,30.22,North,355,2.0,7.0,39,0.00,,---,0.00,VWS V14.01,2013-03-09 00:55:00,
2013-03-08 20:00:00,39.5,15.4,30.23,North,350,3.0,6.0,37,0.00,,---,0.00,VWS V14.01,2013-03-09 01:00:00,
2013-03-08 20:05:00,39.5,15.4,30.23,NNW,331,6.0,7.0,37,0.00,,---,0.00,VWS V14.01,2013-03-09 01:05:00,
2013-03-08 20:10:00,39.3,15.2,30.23,NW,318,3.0,6.0,37,0.00,,---,0.00,VWS V14.01,2013-03-09 01:10:00,
2013-03-08 20:15:00,39.2,15.1,30.23,NNW,338,3.0,6.0,37,0.00,,---,0.00,VWS V14.01,2013-03-09 01:15:00,
2013-03-08 20:20:00,39.1,15.6,30.23,North,355,4.0,5.0,38,0.00,,---,0.00,VWS V14.01,2013-03-09 01:20:00,
2013-03-08 20:25:00,38.9,15.5,30.23,NNW,346,0.0,3.0,38,0.00,,---,0.00,VWS V14.01,2013-03-09 01:25:00,
2013-03-08 20:30:00,38.8,15.4,30.23,NNW,332,0.0,4.0,38,0.00,,---,0.00,VWS V14.01,2013-03-09 01:30:00,
2013-03-08 20:35:00,38.5,15.7,30.23,WNW,303,0.0,4.0,39,0.00,,---,0.00,VWS V14.01,2013-03-09 01:35:00,
2013-03-08 20:40:00,38.3,16.1,30.23,NW,317,1.0,3.0,40,0.00,,---,0.00,VWS V14.01,2013-03-09 01:40:00,
2013-03-08 20:45:00,38.3,15.5,30.23,NNW,337,2.0,5.0,39,0.00,,---,0.00,VWS V14.01,2013-03-09 01:45:00,
2013-03-08 20:50:00,37.9,17.4,30.23,NW,317,0.0,5.0,43,0.00,,---,0.00,VWS V14.01,2013-03-09 01:50:00,
2013-03-08 20:55:00,37.5,16.5,30.23,NNW,346,0.0,3.0,42,0.00,,---,0.00,VWS V14.01,2013-03-09 01:55:00,
2013-03-08 21:00:00,37.0,17.1,30.23,NW,321,3.0,6.0,44,0.00,,---,0.00,VWS V14.01,2013-03-09 02:00:00,
2013-03-08 21:05:00,37.2,16.2,30.23,NW,320,1.0,9.0,42,0.00,,---,0.00,VWS V14.01,2013-03-09 02:05:00,
2013-03-08 21:10:00,37.5,16.0,30.23,North,355,0.0,6.0,41,0.00,,---,0.00,VWS V14.01,2013-03-09 02:10:00,
2013-03-08 21:15:00,37.8,15.7,30.23,North,350,0.0,5.0,40,0.00,,---,0.00,VWS V14.01,2013-03-09 02:15:00,
2013-03-08 21:20:00,37.9,15.2,30.23,NNE,22,0.0,6.0,39,0.00,,---,0.00,VWS V14.01,2013-03-09 02:20:00,
2013-03-08 21:25:00,37.6,15.5,30.23,NNE,22,0.0,0.0,40,0.00,,---,0.00,VWS V14.01,2013-03-09 02:25:00,
2013-03-08 21:30:00,37.5,15.4,30.24,NNE,21,0.0,0.0,40,0.00,,---,0.00,VWS V14.01,2013-03-09 02:30:00,
2013-03-08 21:35:00,37.6,14.9,30.24,North,355,0.0,9.0,39,0.00,,---,0.00,VWS V14.01,2013-03-09 02:35:00,
2013-03-08 21:40:00,37.3,15.8,30.24,NNW,329,0.0,3.0,41,0.00,,---,0.00,VWS V14.01,2013-03-09 02:40:00,
2013-03-08 21:45:00,37.2,15.7,30.23,NNW,348,3.0,4.0,41,0.00,,---,0.00,VWS V14.01,2013-03-09 02:45:00,
2013-03-08 21:50:00,37.3,15.2,30.23,North,360,6.0,6.0,40,0.00,,---,0.00,VWS V14.01,2013-03-09 02:50:00,
2013-03-08 21:55:00,37.5,14.8,30.23,NNW,339,0.0,4.0,39,0.00,,---,0.00,VWS V14.01,2013-03-09 02:55:00,
2013-03-08 22:00:00,37.5,14.8,30.24,NNW,331,3.0,4.0,39,0.00,,---,0.00,VWS V14.01,2013-03-09 03:00:00,
2013-03-08 22:05:00,37.3,14.6,30.24,NNW,331,0.0,3.0,39,0.00,,---,0.00,VWS V14.01,2013-03-09 03:05:00,
2013-03-08 22:10:00,37.0,15.5,30.24,NW,325,3.0,5.0,41,0.00,,---,0.00,VWS V14.01,2013-03-09 03:10:00,
2013-03-08 22:15:00,37.2,15.1,30.24,NW,305,0.0,6.0,40,0.00,,---,0.00,VWS V14.01,2013-03-09 03:15:00,
2013-03-08 22:20:00,37.0,14.9,30.24,NW,314,0.0,3.0,40,0.00,,---,0.00,VWS V14.01,2013-03-09 03:20:00,
2013-03-08 22:25:00,37.2,15.1,30.24,NW,318,0.0,1.0,40,0.00,,---,0.00,VWS V14.01,2013-03-09 03:25:00,
2013-03-08 22:30:00,37.2,14.5,30.24,North,355,0.0,4.0,39,0.00,,---,0.00,VWS V14.01,2013-03-09 03:30:00,
2013-03-08 22:35:00,36.5,15.6,30.24,North,350,0.0,2.0,42,0.00,,---,0.00,VWS V14.01,2013-03-09 03:35:00,
2013-03-08 22:40:00,35.9,16.1,30.24,North,350,0.0,2.0,44,0.00,,---,0.00,VWS V14.01,2013-03-09 03:40:00,
2013-03-08 22:45:00,35.5,16.3,30.23,NNE,28,0.0,3.0,45,0.00,,---,0.00,VWS V14.01,2013-03-09 03:45:00,
2013-03-08 22:50:00,35.6,15.9,30.23,NW,311,0.0,3.0,44,0.00,,---,0.00,VWS V14.01,2013-03-09 03:50:00,
2013-03-08 22:55:00,35.6,16.4,30.23,NW,314,2.0,3.0,45,0.00,,---,0.00,VWS V14.01,2013-03-09 03:55:00,
2013-03-08 23:00:00,35.8,16.0,30.23,North,350,0.0,5.0,44,0.00,,---,0.00,VWS V14.01,2013-03-09 04:00:00,
2013-03-08 23:05:00,35.2,17.0,30.23,NNW,347,0.0,4.0,47,0.00,,---,0.00,VWS V14.01,2013-03-09 04:05:00,
2013-03-08 23:10:00,35.0,16.3,30.23,NNW,342,0.0,3.0,46,0.00,,---,0.00,VWS V14.01,2013-03-09 04:10:00,
2013-03-08 23:15:00,35.5,15.8,30.23,NNW,343,0.0,2.0,44,0.00,,---,0.00,VWS V14.01,2013-03-09 04:15:00,
2013-03-08 23:20:00,35.9,15.6,30.23,NNW,343,0.0,0.0,43,0.00,,---,0.00,VWS V14.01,2013-03-09 04:20:00,
2013-03-08 23:25:00,35.2,16.5,30.23,NNW,343,0.0,1.0,46,0.00,,---,0.00,VWS V14.01,2013-03-09 04:25:00,
2013-03-08 23:30:00,33.8,18.0,30.23,NNW,343,0.0,0.0,52,0.00,,---,0.00,VWS V14.01,2013-03-09 04:30:00,
2013-03-08 23:35:00,34.3,16.2,30.23,NNW,343,0.0,0.0,47,0.00,,---,0.00,VWS V14.01,2013-03-09 04:35:00,
2013-03-08 23:40:00,34.9,15.7,30.23,NNW,343,0.0,0.0,45,0.00,,---,0.00,VWS V14.01,2013-03-09 04:40:00,
2013-03-08 23:45:00,35.0,15.3,30.23,NNW,343,0.0,0.0,44,0.00,,---,0.00,VWS V14.01,2013-03-09 04:45:00,
2013-03-08 23:50:00,35.2,15.5,30.23,North,11,0.0,4.0,44,0.00,,---,0.00,VWS V14.01,2013-03-09 04:50:00,
2013-03-08 23:55:00,35.3,15.1,30.23,North,11,0.0,0.0,43,0.00,,---,0.00,VWS V14.01,2013-03-09 04:55:00,